Terug naar catalogus

COSMOS 2155

ActiefNavigatieGEO
NORAD 21702·PAYLOAD·🇷🇺 Russia

Gelanceerd Sep 13, 1991 vanaf Baikonur Cosmodrome

Loading…

TLE

VersSource: Space-Track

Epoch: Sep 14, 2026, 13:00 UTC

1 21702U 91064A   26257.54221831  .00000019  00000-0  00000-0 0  9990
2 21702  13.0490 338.6278 0004021 244.5599 145.8931  1.00243142128237

Volg COSMOS 2155 in realtime met AllMySat

Download on the App Store